When you browse on this site, cookies collect data to enhance your experience and personalize the content and advertising you see.
Visit our Privacy Policy to learn more. By continuing to use the site, you agree to this use of cookies and data.
  • In Hungary
  • List of Countries
  • For 7 days
  • Water Temperature
  • Weather Map
  • News
  • Weather Widgets
  • user-avatar
    Login

    Hourly Weather Sachivki

    Today, 7 December, Saturday

    Time Temperature Precipitation Wind Pressure Humidity
    00:00 -1°C° 0.1 mm 5 mps 742 mmHg 85%
    01:00 -1°C° 0.1 mm 5 mps 742 mmHg 86%
    02:00 -1°C° 0 mm 4 mps 741 mmHg 87%
    03:00 -1°C° 0.2 mm 4 mps 741 mmHg 88%
    04:00 -1°C° 0.2 mm 4 mps 741 mmHg 90%
    05:00 -2°C° 0.2 mm 4 mps 740 mmHg 92%
    06:00 -2°C° 0.8 mm 5 mps 740 mmHg 92%
    07:00 -2°C° 0.8 mm 5 mps 740 mmHg 92%
    08:00 -2°C° 0 mm 4 mps 740 mmHg 91%
    09:00 -2°C° 0.2 mm 5 mps 740 mmHg 88%
    10:00 -2°C° 0.2 mm 5 mps 739 mmHg 84%
    11:00 -2°C° 0.2 mm 5 mps 739 mmHg 81%
    12:00 -1°C° 0 mm 5 mps 738 mmHg 79%
    13:00 -1°C° 0 mm 5 mps 738 mmHg 78%
    14:00 -2°C° 0 mm 6 mps 737 mmHg 76%
    15:00 -2°C° 0 mm 6 mps 737 mmHg 78%
    16:00 -2°C° 0 mm 6 mps 737 mmHg 80%
    17:00 -2°C° 0 mm 7 mps 736 mmHg 82%
    18:00 -2°C° 0 mm 6 mps 736 mmHg 84%
    19:00 -2°C° 0 mm 6 mps 736 mmHg 85%
    20:00 -1°C° 0 mm 6 mps 736 mmHg 86%
    21:00 -1°C° 0.1 mm 7 mps 735 mmHg 88%
    22:00 0°C° 0.1 mm 7 mps 735 mmHg 89%
    23:00 +2°C° 0.1 mm 7 mps 734 mmHg 91%

    Tomorrow, 8 December, Sunday

    Time Temperature Precipitation Wind Pressure Humidity
    00:00 0°C° 0.1 mm 7 mps 735 mmHg 87%
    01:00 0°C° 0.1 mm 7 mps 735 mmHg 84%
    02:00 0°C° 0.1 mm 7 mps 735 mmHg 81%
    03:00 0°C° 0 mm 7 mps 735 mmHg 82%
    04:00 0°C° 0 mm 7 mps 735 mmHg 83%
    05:00 0°C° 0 mm 7 mps 735 mmHg 84%
    06:00 -1°C° 0 mm 7 mps 736 mmHg 84%
    07:00 -1°C° 0 mm 7 mps 737 mmHg 83%
    08:00 -1°C° 0 mm 7 mps 737 mmHg 83%
    09:00 -1°C° 0 mm 6 mps 738 mmHg 83%
    10:00 -1°C° 0 mm 6 mps 739 mmHg 83%
    11:00 -1°C° 0 mm 6 mps 739 mmHg 82%
    12:00 0°C° 0 mm 5 mps 739 mmHg 82%
    13:00 0°C° 0 mm 5 mps 740 mmHg 82%
    14:00 0°C° 0 mm 5 mps 740 mmHg 81%
    15:00 0°C° 0 mm 5 mps 739 mmHg 84%
    16:00 0°C° 0 mm 5 mps 739 mmHg 86%
    17:00 0°C° 0 mm 5 mps 739 mmHg 88%
    18:00 -1°C° 0 mm 6 mps 739 mmHg 89%
    19:00 +1°C° 0 mm 6 mps 739 mmHg 91%
    20:00 +2°C° 0 mm 6 mps 738 mmHg 92%
    21:00 +2°C° 0.3 mm 6 mps 738 mmHg 91%
    22:00 +2°C° 0.3 mm 7 mps 737 mmHg 90%
    23:00 +2°C° 0.3 mm 7 mps 737 mmHg 90%

    Day after tomorrow, 9 December, Monday

    Time Temperature Precipitation Wind Pressure Humidity
    00:00 +2°C° 0.2 mm 7 mps 736 mmHg 89%
    01:00 +2°C° 0.2 mm 7 mps 736 mmHg 87%
    02:00 +2°C° 0.2 mm 7 mps 736 mmHg 86%
    03:00 +2°C° 0.1 mm 7 mps 736 mmHg 87%
    04:00 +3°C° 0.1 mm 7 mps 735 mmHg 88%
    05:00 +3°C° 0.1 mm 6 mps 735 mmHg 89%
    06:00 +3°C° 0.1 mm 6 mps 735 mmHg 89%
    07:00 +3°C° 0.1 mm 6 mps 735 mmHg 89%
    08:00 +3°C° 0.1 mm 6 mps 735 mmHg 89%
    09:00 +4°C° 0 mm 6 mps 735 mmHg 89%
    10:00 +4°C° 0 mm 6 mps 736 mmHg 88%
    11:00 +4°C° 0 mm 6 mps 736 mmHg 87%
    12:00 +4°C° 0.1 mm 6 mps 736 mmHg 86%
    13:00 +4°C° 0.1 mm 6 mps 736 mmHg 86%
    14:00 +4°C° 0.1 mm 6 mps 736 mmHg 85%
    15:00 +4°C° 0.1 mm 6 mps 736 mmHg 86%
    16:00 +5°C° 0.1 mm 5 mps 736 mmHg 87%
    17:00 +5°C° 0.1 mm 5 mps 736 mmHg 89%
    18:00 +5°C° 0.1 mm 5 mps 736 mmHg 88%
    19:00 +5°C° 0.1 mm 5 mps 737 mmHg 88%
    20:00 +5°C° 0.1 mm 5 mps 737 mmHg 87%
    21:00 +3°C° 0.1 mm 5 mps 738 mmHg 88%
    22:00 +2°C° 0.1 mm 5 mps 738 mmHg 88%
    23:00 +3°C° 0.1 mm 4 mps 738 mmHg 89%

    10 December, Tuesday

    Time Temperature Precipitation Wind Pressure Humidity
    00:00 +3°C° 0 mm 4 mps 739 mmHg 90%
    01:00 +1°C° 0 mm 4 mps 739 mmHg 90%
    02:00 +1°C° 0 mm 4 mps 739 mmHg 91%
    03:00 +1°C° 0 mm 4 mps 740 mmHg 91%
    04:00 +1°C° 0 mm 4 mps 740 mmHg 92%
    05:00 0°C° 0 mm 4 mps 740 mmHg 93%
    06:00 0°C° 0 mm 4 mps 740 mmHg 93%
    07:00 0°C° 0 mm 4 mps 740 mmHg 93%
    08:00 0°C° 0 mm 4 mps 740 mmHg 93%
    09:00 +1°C° 0 mm 4 mps 741 mmHg 90%
    10:00 +1°C° 0 mm 4 mps 741 mmHg 88%
    11:00 +2°C° 0 mm 5 mps 741 mmHg 86%
    12:00 +2°C° 0 mm 5 mps 741 mmHg 85%
    13:00 +2°C° 0 mm 5 mps 742 mmHg 84%
    14:00 +2°C° 0 mm 5 mps 742 mmHg 83%
    15:00 +2°C° 0.1 mm 5 mps 742 mmHg 87%
    16:00 +1°C° 0.1 mm 5 mps 743 mmHg 90%
    17:00 +1°C° 0.1 mm 5 mps 743 mmHg 93%
    18:00 0°C° 0.3 mm 5 mps 744 mmHg 90%
    19:00 -1°C° 0.3 mm 5 mps 745 mmHg 87%
    20:00 -1°C° 0.3 mm 5 mps 746 mmHg 83%
    21:00 -2°C° 0 mm 5 mps 747 mmHg 82%
    22:00 -2°C° 0 mm 5 mps 747 mmHg 81%
    23:00 -3°C° 0 mm 4 mps 748 mmHg 80%

    11 December, Wednesday

    Time Temperature Precipitation Wind Pressure Humidity
    00:00 -3°C° 0 mm 4 mps 749 mmHg 79%
    01:00 -3°C° 0 mm 4 mps 750 mmHg 77%
    02:00 -3°C° 0 mm 4 mps 750 mmHg 76%
    03:00 -3°C° 0 mm 4 mps 751 mmHg 76%
    04:00 -3°C° 0 mm 4 mps 751 mmHg 75%
    05:00 -3°C° 0 mm 4 mps 752 mmHg 75%
    06:00 -3°C° 0 mm 4 mps 752 mmHg 76%
    07:00 -2°C° 0 mm 3 mps 752 mmHg 78%
    08:00 -2°C° 0 mm 3 mps 753 mmHg 79%
    09:00 -2°C° 0 mm 3 mps 753 mmHg 77%
    10:00 -2°C° 0 mm 3 mps 753 mmHg 75%
    11:00 -1°C° 0 mm 3 mps 753 mmHg 73%
    12:00 -1°C° 0 mm 3 mps 753 mmHg 70%
    13:00 -1°C° 0 mm 3 mps 753 mmHg 68%
    14:00 +1°C° 0 mm 2 mps 753 mmHg 65%
    15:00 -1°C° 0 mm 2 mps 753 mmHg 67%
    16:00 -1°C° 0 mm 2 mps 753 mmHg 69%
    17:00 -2°C° 0 mm 2 mps 753 mmHg 71%
    18:00 -2°C° 0 mm 3 mps 753 mmHg 68%
    19:00 -2°C° 0 mm 3 mps 753 mmHg 66%
    20:00 -2°C° 0 mm 3 mps 753 mmHg 64%
    21:00 -2°C° 0 mm 3 mps 753 mmHg 62%
    22:00 -2°C° 0 mm 3 mps 753 mmHg 61%
    23:00 -3°C° 0 mm 4 mps 753 mmHg 59%

    12 December, Thursday

    Time Temperature Precipitation Wind Pressure Humidity
    00:00 -3°C° 0 mm 4 mps 753 mmHg 59%
    01:00 -3°C° 0 mm 4 mps 753 mmHg 58%
    02:00 -3°C° 0 mm 4 mps 752 mmHg 58%
    03:00 -4°C° 0 mm 4 mps 752 mmHg 58%
    04:00 -4°C° 0 mm 4 mps 752 mmHg 59%
    05:00 -4°C° 0 mm 4 mps 752 mmHg 59%
    06:00 -4°C° 0 mm 4 mps 751 mmHg 59%
    07:00 -4°C° 0 mm 4 mps 751 mmHg 59%
    08:00 -4°C° 0 mm 4 mps 751 mmHg 60%
    09:00 -4°C° 0 mm 4 mps 751 mmHg 59%
    10:00 -4°C° 0 mm 5 mps 751 mmHg 59%
    11:00 -4°C° 0 mm 5 mps 751 mmHg 58%
    12:00 -4°C° 0 mm 5 mps 751 mmHg 61%
    13:00 -2°C° 0 mm 5 mps 750 mmHg 63%
    14:00 -2°C° 0 mm 4 mps 750 mmHg 66%
    15:00 -3°C° 0 mm 4 mps 750 mmHg 68%
    16:00 -3°C° 0 mm 4 mps 750 mmHg 70%
    17:00 -4°C° 0 mm 4 mps 750 mmHg 72%
    18:00 -4°C° 0 mm 4 mps 750 mmHg 72%
    19:00 -4°C° 0 mm 4 mps 750 mmHg 72%
    20:00 -4°C° 0 mm 4 mps 750 mmHg 72%
    21:00 -3°C° 0 mm 4 mps 749 mmHg 72%
    22:00 -3°C° 0 mm 4 mps 749 mmHg 71%
    23:00 -3°C° 0 mm 4 mps 749 mmHg 71%
    Show more